Weather Roundup
Issued by NWS

Home | Current Version | Previous Version | Graphics & Text | Print | Product List | Glossary Off
Versions: 1 2 3 4 5 6 7 8 9 10 11 12 13 14 15 16 17 18 19 20 21 22 23 24 25 26 27 28 29 30 31 32 33 34 35 36 37 38 39 40 41 42 43 44 45 46 47 48 49 50

000
NZUS93 KARX 040259
HRRWXR

CURRENT HOURLY OBSERVATIONS ACROSS
MUCH OF THE UPPER MISSISSIPPI VALLEY
NATIONAL WEATHER SERVICE LA CROSSE WI
900 PM CST SAT DEC 03 2016


...SOUTHEAST MINNESOTA...


CITY           SKY/WX    TMP DP  RH WIND       PRES   REMARKS
ROCHESTER      PTCLDY    29  26  89 SE10      30.16F WCI  20
ROCHESTER/MAYO CLOUDY    30  24  79 SE7       30.17S WCI  23
WINONA         PTCLDY    32  27  80 SE3       30.21F
AUSTIN         LGT SNOW  32  28  86 SE5       30.15F WCI  27
ALBERT LEA     LGT SNOW  36  36 100 S9        30.14F WCI  29
DODGE CENTER   CLOUDY    30  28  93 SE9       30.14F WCI  22
PRESTON        CLOUDY    29  24  81 SE6       30.18S WCI  23
OWATONNA       CLOUDY    34  28  80 SE7       30.14F WCI  28
FARIBAULT      CLOUDY    34  28  80 SE7       30.15S WCI  28
$$

...ELSEWHERE IN MINNESOTA...


CITY           SKY/WX    TMP DP  RH WIND       PRES   REMARKS
MINNEAPOLIS    CLOUDY    32  24  72 SE7       30.15F WCI  26
INTNL FALLS    CLOUDY    26  19  74 SE6       30.09F WCI  19
DULUTH         CLOUDY    28  20  71 S8        30.13F WCI  20
RED WING       NOT AVBL
REDWOOD FALLS  CLOUDY    34  31  88 SE10      30.08F FOG     WCI  26
MANKATO        FLURRIES  33  32  96 S9        30.13F WCI  25
WORTHINGTON    MIX PCPN  32  31  96 S13       30.06F WCI  22
FAIRMONT       CLOUDY    33  32  96 S13       30.11F WCI  24
$$

...SOUTHWEST WISCONSIN...


CITY           SKY/WX    TMP DP  RH WIND       PRES   REMARKS
LA CROSSE      CLOUDY    33  26  75 SE6       30.21F WCI  28
PRAIRIE DU CHI CLOUDY    33  26  76 E6        30.23F WCI  28
BOSCOBEL       MOCLDY    32  26  78 CALM      30.24F
LONE ROCK      NOT AVBL
PLATTEVILLE    NOT AVBL
FORT MC COY    CLOUDY    31  27  85 CALM      30.23F
MAUSTON-NEW LI CLOUDY    32  26  78 CALM      30.23S
VIROQUA        MOCLDY    30  27  89 SE6       30.20F WCI  24
WIS DELLS      CLOUDY    31  25  78 SE3       30.24S
$$

...ELSEWHERE IN WISCONSIN...


CITY           SKY/WX    TMP DP  RH WIND       PRES   REMARKS
MILWAUKEE      CLOUDY    32  22  66 S3        30.29S
MADISON        CLOUDY    31  24  75 SE5       30.25F WCI  26
GREEN BAY      CLOUDY    33  24  69 S5        30.26S WCI  29
EAU CLAIRE     NOT AVBL
BLACK RVR FLS  MOCLDY    29  24  79 CALM      30.21F
MEDFORD        CLOUDY    27  21  79 S3        30.18F
WAUSAU         CLOUDY    28  21  75 CALM      30.20F
WIS RAPIDS     CLOUDY    29  22  75 SE5       30.23F WCI  24
MARSHFIELD     CLOUDY    28  21  75 CALM      30.19F
RICE LAKE      PTCLDY    28  21  77 SE3       30.20F
$$

...NORTHEAST IOWA...


CITY           SKY/WX    TMP DP  RH WIND       PRES   REMARKS
WATERLOO       CLOUDY    34  31  88 SE6       30.19F WCI  29
DUBUQUE        CLOUDY    33  28  81 S8        30.22F WCI  26
DECORAH        CLOUDY    32  28  86 SE6       30.18F WCI  26
MASON CITY     LGT SNOW  33  32  96 SE8       30.16F FOG     WCI  26
CHARLES CITY   LGT SNOW  34  34 100 S8        30.18S WCI  27
OELWEIN        CLOUDY    32  32 100 S7        30.20F FOG     WCI  26
$$

...ELSEWHERE IN IOWA...


CITY           SKY/WX    TMP DP  RH WIND       PRES   REMARKS
DES MOINES     LGT RAIN  37  33  85 SE9       30.15F WCI  30
IOWA CITY      CLOUDY    36  29  75 SE8       30.25F WCI  30
FORT DODGE     CLOUDY    34  30  86 SE8       30.14S WCI  27
MARSHALLTOWN   CLOUDY    35  32  88 SE12      30.17F WCI  27
CEDAR RAPIDS   CLOUDY    35  29  78 SE8       30.21F WCI  29
$$

...NORTHERN ILLINOIS...


CITY           SKY/WX    TMP DP  RH WIND       PRES   REMARKS
CHICAGO-OHARE  CLOUDY    31  25  78 S3        30.29F
CHICAGO-MIDWAY CLOUDY    33  24  69 S6        30.30F WCI  28
MOLINE         CLOUDY    34  26  72 S7        30.26F WCI  28
ROCKFORD       CLOUDY    34  27  75 SE7       30.29F WCI  28
PEORIA         CLOUDY    34  28  79 SE6       30.28F WCI  29
$$

NOTE: "FAIR" INDICATES FEW OR NO CLOUDS BELOW 12,000 FEET WITH NO
SIGNIFICANT WEATHER AND/OR OBSTRUCTIONS TO VISIBILITY. WIND
SPEEDS ARE IN MILES-PER-HOUR.




USA.gov is the U.S. government's official web portal to all federal, state and local government web resources and services.